Location: Unspecified
(46.0725°N, 13.7344°E)
Time: 09:34:08
(UTC+02:00)

Cosmos 2058 - Pass Details

Date: 14 June 2024
Orbit: 545 x 564 km, 82.5° (Epoch: 17 July)

Event Time Altitude Azimuth Distance (km) Brightness Sun altitude
Rises 03:14:15 0° 141° (SE) 2,720 6.2 -14.7°
Reaches altitude 10° 03:17:18 10° 116° (ESE) 1,837 5.6 -14.5°
Maximum altitude 03:19:23 14° 84° (E) 1,609 5.7 -14.3°
Drops below altitude 10° 03:21:29 10° 53° (NE) 1,852 6.7 -14.1°
Sets 03:24:34 0° 28° (NNE) 2,760 8.4 -13.8°
